COSMOS 1375 DEB, 17102

Orbit data source: Space-Track

COSMOS 1375 DEB, 17102 is space debris in LEO originally from a launch on Sun, 06 Jun 1982 UTC launched from the Plesetsk Missile And Space Complex (PKMTR). Debris objects in space refer to the collection of defunct objects orbiting the Earth. Examples of debris include non-operational satellites, rocket bodies, and fragments generated from explosions, collisions, or faulty payload assembly.

Loading next visibility...
Identifier
17102, 1982-055AD
Orbit
LEO
Country
Flag of CISCIS
Related business
Manufacturer
Unknown
Mission
Spacecraft
Bus & Motor
Unknown
Mass
Unknown
Launch date (UTC)
1982-06-06 (44 years ago)
Launch vehicle
Unknown
Launch site
Plesetsk Missile And Space Complex (PKMTR)
Object type
Payload
Rocket body
Debris
Shape & HBR
Unknown shape, 0.3 m
Radar Cross Section
Medium (>0.1 m² and <1 m²)

Expand to show TLE details & history
Last TLE update: 2 days ago

TLE from 2 days ago
0 COSMOS 1375 DEB
1 17102U 82055AD  26171.40175769 -.00000083  00000-0 -75010-5 0  9998
2 17102  65.8325 183.9911 0066522 132.1260 331.1916 13.61045661 20289
Epoch: 2026-06-20T09:38Z
TLE epoch observation values (Epoch: 2026-06-20T09:38:31.864Z)
Latitude
62.88178°
Longitude
-109.91201°
Altitude
998.667 km
Speed
7.38 km/s
True Right ascension
20h 13m 21s
True Declination
62° 44' 48"
Sunlit
Object was in daylight at epoch
Visualization orbit readout
Latitude
Unknown
Longitude
Unknown
Altitude
Unknown
Speed
Unknown
Apparent Right ascension
Unknown
Apparent Declination
Unknown
Sunlit
N/A
Visualization observer readout
Local Sidereal Time
23:08:15
Azimuth
Unknown
Elevation
Unknown
Doppler factor
Unknown
Orbital elements
Apogee altitude
1,079.705 km
Perigee altitude
981.138 km
Semi-major axis
7,408.559 km
Eccentricity
0.00665
Inclination
65.8325°
RAAN
183.9911°
Arg. of periapsis
132.126°
True anomaly
330.82158°
Mean anomaly
331.1916°
Eccentric anomaly
331.00686°
Mean motion
3.40363 °/min
Orbital period
105.77 mins
BSTAR
-0.000007501
Loading maneuver chart data...
Computing Atmospheric mass density...
Loading historical data...
Loading historical data...
Loading historical data...
Loading historical data...
Loading historical data...
Loading historical data...
Loading historical data...

Documentation

Showing up to 5 results
|